sat.trackr.live / text

‹ back to catalog

STARLINK-2674

NORAD 48354 · 2021-038B

PAYLOAD ACTIVE UNKNOWN

§ Identity

Operator
Country
US
Launch date
2021-05-04
Launch site
AFETR
Launch vehicle
Mass (kg)
RCS (m²)

Purposes: comms

External: N2YO · Heavens-Above · Gunter

§ Orbital elements

Epoch: 2026-05-25T00:38:31.079040Z

Period
94.01 min
Inclination
53.1607°
Eccentricity
0.0001125
Mean motion
15.31708557 rev/d
Perigee alt
469.9 km
Apogee alt
471.5 km
Semi-major
6,848.9 km
B*
1.8965e-4
RAAN
3.1711°
Arg perigee
89.3558°
Mean anomaly
270.7572°
Rev number
27,877

§ Raw data

STARLINK-26741 48354U 21038B   26145.02674860  .00005526  00000+0  18965-3 0  99982 48354  53.1607   3.1711 0001125  89.3558 270.7572 15.31708557278771

JSON: /api/v1/satellites/48354 · /tle

For live sub-satellite position, see the globe view (requires WebGL).

§ Visibility from observer

Set your observer location to see the next 7 days of passes ≥ 10°. The values pass through the URL so the page stays shareable.

No JS? Fill the form by hand. The geolocation button needs JavaScript.